Location: *
(58.7167°N, 26.1833°E)
Time: 09:16:15
(UTC+00:00)

Daily predictions for brighter satellites

Satellite Brightness Start Highest point End
(mag) Time Altitude Azimuth Time Altitude Azimuth Time Altitude Azimuth
Cosmos 1553 Rocket 4.1 18:10:07 10° S 18:16:24 71° E 18:22:48 10° NNE
NOSS 3-1 (C) 4.1 18:09:48 10° WNW 18:16:50 81° SW 18:25:03 10° SE
ATLAS 2AS CENTAUR R/B 3.6 18:08:56 10° W 18:17:00 65° NNW 18:24:46 10° ENE
Meteor 1-5 Rocket 4.4 18:13:24 10° SSE 18:18:48 49° E 18:24:03 10° NNE
Cosmos 1980 Rocket 2.3 18:13:50 10° NW 18:19:30 75° NE 18:25:09 10° SE
SPOT 5 3.8 18:17:16 10° ESE 18:20:59 28° NE 18:24:47 10° N
Meteor 1-11 Rocket 4.1 18:16:23 10° SSE 18:22:06 50° E 18:27:51 10° NNE
Cosmos 1867 3.7 18:17:02 10° NW 18:22:34 76° NNE 18:28:02 10° ESE
NOSS 2 (A) 4.2 18:20:15 10° WNW 18:23:07 76° NNE 18:25:34 10° ESE
ARGOS 3.6 18:18:31 10° S 18:23:51 65° WSW 18:29:13 10° NNW
USA 234 4.4 18:21:26 10° SSE 18:27:22 35° SW 18:33:20 10° WNW
Cosmos 1417 Rocket 4.5 18:22:33 10° S 18:28:41 82° E 18:34:51 10° NNE
COSMOS 2455 4.1 18:23:32 10° WNW 18:29:11 39° N 18:34:49 10° ENE
Cosmos 1709 Rocket 4.0 18:23:33 10° N 18:29:43 73° ENE 18:35:53 10° SSE
RESURS DK-1 4.2 18:28:22 10° WSW 18:32:15 36° NW 18:36:07 10° NNE
Cosmos 990 Rocket 4.4 18:28:40 10° S 18:33:33 42° ESE 18:38:25 10° NE
Cosmos 2098 Rocket 3.5 18:29:40 10° NNW 18:34:10 85° ENE 18:39:55 10° SSE
GP-B 3.2 18:30:47 10° N 18:35:12 57° E 18:39:35 10° SSE
Cosmos 1937 Rocket 4.0 18:33:23 10° S 18:38:18 39° ESE 18:43:14 10° NE
Spot 2 Rocket 3.5 18:35:04 10° SSE 18:40:10 90° ESE 18:45:18 10° NNW
COSMOS 2406 3.3 18:36:43 10° SSW 18:42:19 61° ESE 18:47:59 10° NE
Okean 2 4.0 18:39:29 10° N 18:43:26 42° ENE 18:47:08 11° SE
S3M 4.0 18:37:23 10° S 18:43:39 84° E 18:49:51 10° NNE
Iridium 2 3.8 18:40:08 10° SSE 18:43:48 53° E 18:47:31 10° NNE
Cosmos 2369 4.4 18:38:38 10° NW 18:44:08 53° WSW 18:49:37 10° SSE
Cosmos 2237 Rocket 4.2 18:41:57 10° NW 18:46:31 24° N 18:51:05 10° ENE
Meteor 1-23 Rocket 4.3 18:41:13 10° NNW 18:47:00 84° WSW 18:52:40 10° S
Cosmos 1500 3.2 18:43:18 10° S 18:47:08 68° E 18:50:58 10° NNE
Landsat 7 4.1 18:43:01 10° SE 18:47:40 54° ENE 18:52:19 10° N
SJ 16-02 1.7 18:43:51 10° S 18:48:01 42° ESE 18:52:14 10° NE
ADEOS Rocket 3.0 18:42:32 10° NNE 18:48:30 71° ESE 18:55:04 10° S
Cosmos 1908 Rocket 3.7 18:44:57 10° S 18:49:22 60° E 18:53:46 10° NNE
Meteor 2-16 Rocket 4.5 18:43:52 10° NNW 18:50:04 89° E 18:56:12 10° SSE
Cosmos 2184 Rocket 4.4 18:44:10 10° N 18:50:11 49° ENE 18:55:52 11° SE
MTI 4.5 18:47:42 10° NNE 18:50:39 33° E 18:53:34 10° SSE
Cosmos 1025 Rocket 4.1 18:49:43 10° N 18:53:37 30° ENE 18:56:54 13° ESE
SL-16 R/B 4.4 18:52:51 10° WNW 18:57:27 24° N 19:02:03 10° NE
Cosmos 1536 Rocket 4.4 18:53:23 10° N 18:57:32 37° ENE 19:00:56 14° SE
Cosmos 1340 3.3 18:56:26 10° SSE 18:59:53 36° E 19:03:23 10° NNE
Cosmos 2315 Rocket 4.1 18:53:54 10° S 19:00:08 60° E 19:06:20 10° NNE
Cosmos 1975 4.1 19:03:41 15° SE 19:05:54 23° E 19:09:06 10° NE
Okean 2 Rocket 3.9 19:05:33 14° SSE 19:08:44 32° E 19:12:41 10° NNE
Cosmos 405 3.7 19:05:33 10° N 19:08:56 39° ENE 19:11:15 17° SE
Cosmos 2322 Rocket 2.5 19:05:22 10° NW 19:11:00 61° NE 19:15:39 15° ESE
SPOT 1/Viking Rocket 3.6 19:07:11 12° SSE 19:12:07 80° ENE 19:17:21 10° NNW
Lacrosse 4 Rocket 2.7 19:10:03 10° NW 19:13:56 34° NNE 19:17:44 10° E
USA 32 4.0 19:08:47 10° N 19:14:04 85° E 19:19:19 10° S
APEX 4.1 19:08:22 10° NW 19:14:10 69° NE 19:17:44 17° SE
DMSP B5D2-2 4.0 19:10:31 10° NNE 19:15:48 76° ESE 19:21:05 10° SSW
USA 229 DEB 4.5 19:09:21 10° WNW 19:16:08 48° SW 19:22:46 12° SSE
USA 229 4.5 19:09:27 10° WNW 19:16:15 48° SW 19:22:51 12° SSE
Cosmos 1346 Rocket 2.8 19:12:45 10° S 19:16:31 56° E 19:20:21 10° NNE
Terra 2.1 19:14:34 16° SE 19:18:14 55° ENE 19:22:54 10° N
Cosmos 1241 Rocket 4.5 19:11:47 10° SW 19:18:16 74° SE 19:24:42 10° NE
Cosmos 2333 Rocket 3.6 19:13:44 10° NW 19:18:46 31° NNE 19:23:47 10° E
NOSS 3-1 (A) 4.2 19:12:43 10° WNW 19:19:45 64° SW 19:26:38 15° SSE
Cosmos 2298 Rocket 4.4 19:15:23 10° S 19:20:23 43° ESE 19:25:26 10° NE
EO 1 Del DPAF 3.9 19:18:36 10° NNE 19:22:09 36° E 19:24:25 18° SSE
NOSS 3-4 (A) 4.2 19:17:20 10° W 19:23:39 59° N 19:30:35 10° ENE
NOSS 3-4 (C) 4.2 19:17:26 10° W 19:23:45 59° N 19:30:41 10° ENE
Sich 1 Rocket 3.6 19:20:45 10° S 19:25:12 66° E 19:29:38 10° NNE
Cosmos 1782 Rocket 3.5 19:24:09 10° S 19:28:35 80° E 19:33:00 10° NNE
Cosmos 1833 Rocket 2.7 19:24:09 10° SSW 19:29:42 63° ESE 19:35:17 10° NE
Resurs 01 Rocket 3.6 19:26:33 10° SSW 19:30:14 26° W 19:33:58 10° NW
ASTEX 1 4.0 19:26:03 10° N 19:30:57 59° WNW 19:35:47 10° SSW
Cosmos 1048 Rocket 4.2 19:26:09 10° NW 19:31:15 67° WSW 19:35:20 16° SSE
Cosmos 1536 3.4 19:27:26 10° SSW 19:31:28 60° WNW 19:35:32 10° N
USA 267 3.2 19:25:28 10° ENE 19:32:00 66° SSE 19:38:31 10° WSW
CZ-2C R/B 2.6 19:32:21 10° NNE 19:37:39 71° ESE 19:43:01 10° S
MOS 1 Rocket 4.2 19:32:54 10° NNE 19:38:01 40° E 19:41:28 19° SSE
Cosmos 1697 Rocket 4.3 19:33:24 10° NW 19:38:12 29° WSW 19:43:00 10° SSW
Cosmos 1743 2.8 19:35:43 19° SSE 19:38:14 53° E 19:41:58 10° NNE
Cosmos 2082 Rocket 2.3 19:33:03 10° SSW 19:38:33 55° ESE 19:44:07 10° NE
Cosmos 1898 Rocket 3.7 19:33:53 10° SW 19:39:09 74° WNW 19:44:24 10° NNE
ERS-1 Rocket 3.3 19:38:50 14° S 19:43:10 65° WSW 19:48:12 10° NNW
SL-16 R/B 2.2 19:39:10 10° NW 19:44:53 86° SW 19:48:46 21° SSE
Cosmos 1666 2.8 19:41:16 10° SSW 19:45:06 76° WNW 19:48:56 10° N
Cosmos 1975 Rocket 4.3 19:41:46 10° NNW 19:45:56 40° W 19:50:06 10° SSW
IGS 5A 3.9 19:45:32 16° S 19:48:42 59° WSW 19:52:51 10° NNW
Thor Agena Rocket 3.7 19:47:09 10° NNE 19:52:14 53° ESE 19:55:55 19° S
Helios 1A 4.1 19:50:08 20° ESE 19:52:20 33° ENE 19:56:08 10° N
Cosmos 2151 Rocket 3.9 19:50:30 23° SSE 19:53:03 50° E 19:57:22 10° NNE
Mayak 0.4 19:51:30 10° NE 19:54:24 18° E 19:55:08 17° E
Cosmos 1544 4.5 19:55:18 21° E 19:55:48 22° E 19:58:40 10° NE
MINOTAUR IV R/B 4.5 19:51:30 10° SSW 19:56:00 84° ESE 20:00:29 10° NE
Cosmos 1269 Rocket 4.1 19:51:49 10° NNW 19:57:08 76° WSW 20:00:29 23° SSE
Cosmos 2360 Rocket 2.4 19:52:38 10° NW 19:58:17 67° NE 20:01:59 22° SE
Cosmos 494 Rocket 4.1 19:53:20 10° NNW 19:58:28 72° WSW 20:01:41 23° SSE
SPOT 5 3.0 19:55:49 19° S 19:58:51 59° WSW 20:03:15 10° NNW
CZ-4C R/B 3.2 19:58:04 23° SE 19:59:14 25° ESE 20:04:04 10° ENE
Cosmos 1125 Rocket 3.8 19:59:03 21° S 20:02:15 45° ESE 20:07:16 10° NE
Cosmos 2219 Rocket 3.2 19:56:58 10° NW 20:02:16 40° NE 20:06:56 13° E
Cosmos 1980 Rocket 3.5 19:58:13 10° NW 20:03:08 32° WSW 20:07:34 12° SSW
Genesis I 4.2 19:59:38 10° NW 20:03:32 44° NNE 20:06:47 14° E
Spot 4 4.4 20:01:00 23° SE 20:03:39 48° ENE 20:08:18 10° N
STPSAT 2 (USA 217) 4.5 19:59:40 10° SSW 20:04:09 71° ESE 20:08:39 10° NE
Cosmos 1867 4.4 20:00:52 10° WNW 20:05:56 39° SW 20:09:05 21° S
Okean 1 Rocket 3.9 20:05:22 27° SE 20:06:46 34° E 20:10:43 10° NNE
Cosmos 839 Rocket 4.4 19:58:50 10° SW 20:06:54 89° NW 20:13:30 10° NE
ATLAS 2AS CENTAUR R/B 3.4 20:00:56 10° WNW 20:08:58 66° NNE 20:16:31 10° E
SL-27 R/B 2.6 20:07:38 31° S 20:09:07 56° ESE 20:12:43 10° NE
Cosmos 1300 Rocket 3.5 20:07:57 25° S 20:10:26 69° E 20:14:48 10° NNE
COSMOS 2428 3.6 20:05:09 10° NW 20:10:38 45° NE 20:15:04 15° ESE
Cosmos 1842 3.5 20:07:53 10° NNW 20:11:48 64° W 20:13:50 26° S
CARTOSAT-1 4.3 20:09:13 19° SSW 20:12:06 48° W 20:16:20 10° NNW
Cosmos 1378 3.6 20:10:17 10° NNW 20:13:58 55° W 20:15:52 25° SSW
Cosmos 2218 Rocket 4.5 20:09:35 10° N 20:15:49 51° ENE 20:19:35 24° SE
Cosmos 2154 Rocket 4.0 20:09:46 10° NNW 20:16:05 82° W 20:20:17 22° S
COSMOS 2455 3.2 20:10:06 10° NW 20:16:06 61° NNE 20:20:46 17° ESE
Cosmos 1707 2.9 20:14:11 10° N 20:18:01 58° ENE 20:19:22 36° SE
Nadezhda 1 Rocket 3.9 20:14:35 21° S 20:18:50 70° E 20:24:55 10° NNE
Cosmos 1937 Rocket 4.3 20:14:57 10° SW 20:20:11 55° NW 20:25:27 10° NNE
Meteor 2-5 Rocket 4.5 20:15:51 10° N 20:21:08 41° ENE 20:24:14 23° ESE
Cosmos 372 Rocket 3.9 20:16:33 10° SSW 20:21:47 84° ESE 20:27:04 10° NNE
IRAS Rocket 4.2 20:18:57 27° SSE 20:22:11 82° ENE 20:27:49 10° NNW
NOSS 7 (D) 4.3 20:21:54 10° WNW 20:24:43 62° NNE 20:25:32 41° E
SJ 16-02 2.7 20:22:29 10° WSW 20:26:41 40° NW 20:30:55 10° NNE
COSMOS 2406 4.4 20:21:24 10° WSW 20:26:54 46° NW 20:32:27 10° NE
NOSS 7 (E) 4.1 20:29:00 53° S 20:29:25 59° SE 20:32:33 10° ENE
NOSS 2-2 (C) 4.4 20:25:24 10° WNW 20:30:18 73° NNE 20:35:52 15° ESE
Cosmos 1025 Rocket 3.7 20:27:13 10° NNW 20:31:26 48° W 20:33:47 24° SSW
Cosmos 2237 Rocket 3.5 20:26:56 10° NW 20:32:10 36° NNE 20:37:23 10° E
Landsat 4 3.7 20:31:06 10° NNE 20:34:53 61° ESE 20:35:53 43° SSE
ERS-2 4.4 20:33:15 12° E 20:35:04 16° NE 20:37:24 10° NNE
Cosmos 1340 4.4 20:32:08 10° SW 20:35:34 32° WNW 20:39:02 10° N
Cosmos 1674 4.1 20:32:43 10° N 20:36:05 28° ENE 20:37:15 24° E
Cosmos 2322 3.8 20:31:24 10° NW 20:37:10 77° NE 20:40:19 28° SE
Cosmos 1441 Rocket 3.9 20:37:04 35° ESE 20:37:37 37° E 20:41:16 10° NNE
Cosmos 1892 Rocket 3.7 20:36:33 10° N 20:41:02 65° ENE 20:42:40 37° SE
Cosmos 1975 3.4 20:39:26 19° SW 20:42:06 53° WNW 20:46:03 10° N
SL-16 R/B 4.0 20:38:26 10° NW 20:43:19 28° NNE 20:48:12 10° ENE
Okean 2 Rocket 4.0 20:42:54 12° SW 20:46:43 45° WNW 20:51:01 10° N
Cosmos 2251 Rocket 3.5 20:41:48 10° NNW 20:47:11 88° WSW 20:49:37 34° SSE
Okean 1-7 Rocket 3.5 20:43:10 10° N 20:47:36 75° ENE 20:49:05 41° SSE
Lacrosse 4 Rocket 1.3 20:48:48 10° NW 20:53:01 78° SW 20:54:08 47° SSE
Cosmos 2322 Rocket 3.0 20:49:41 10° NW 20:54:54 40° WSW 20:57:27 26° SSW
Helios 1B rocket 3.9 20:52:18 10° NE 20:55:38 23° E 20:55:55 23° E
Cosmos 2366 rocket 4.0 20:49:22 10° NNW 20:55:40 77° ENE 20:58:50 32° SSE
Terra 3.2 20:53:27 18° SW 20:56:15 32° W 21:00:32 10° NNW
Meteor 1-12 Rocket 4.3 20:53:07 24° SSW 20:56:49 89° WNW 21:02:41 10° NNE
Cosmos 2341 Rocket 4.2 20:56:58 10° NNW 21:03:17 66° W 21:06:47 28° S
Cosmos 2333 Rocket 2.3 20:58:14 10° NW 21:03:55 73° NE 21:06:54 29° SE
Meteor 1-4 Rocket 2.6 21:08:39 10° NNW 21:12:28 77° ENE 21:13:04 59° SE
ALOS 2 2.6 21:12:36 45° SSE 21:13:54 79° ENE 21:18:19 10° NNW
Cosmos 1833 Rocket 3.8 21:08:32 10° WSW 21:13:56 44° NW 21:19:21 10° NE
NOSS 3-4 (A) 3.9 21:08:40 10° WNW 21:15:17 74° NNE 21:22:35 10° ESE
NOSS 3-4 (C) 3.9 21:08:46 10° WNW 21:15:23 74° NNE 21:22:41 10° ESE
USA 267 3.1 21:08:49 10° E 21:15:23 79° S 21:21:58 10° W
MOS 1 Rocket 4.4 21:11:10 10° N 21:16:23 51° WNW 21:20:46 15° SW
Cosmos 389 Rocket 2.3 21:13:00 10° NNW 21:16:35 80° WSW 21:16:56 69° SSW
YAOGAN 11 4.1 21:15:31 45° SSE 21:16:56 85° WSW 21:21:34 10° NNW
CZ-2C R/B 4.3 21:13:04 10° N 21:17:38 31° NW 21:22:16 10° WSW
Meteor 1-15 Rocket 4.3 21:15:57 37° SSE 21:18:08 64° E 21:23:47 10° NNE
NOSS 2-2 (E) 4.3 21:15:15 10° WNW 21:20:32 77° SW 21:24:26 28° SE
SL-8 Rocket 4.2 21:15:08 10° NNW 21:21:24 67° W 21:24:29 31° SSW
Cosmos 2082 Rocket 3.1 21:17:20 10° WSW 21:22:50 49° NW 21:28:23 10° NE
Cosmos 1437 Rocket 3.1 21:19:22 10° N 21:23:24 58° ENE 21:24:14 47° ESE
Cosmos 1140 Rocket 4.3 21:19:11 10° NNW 21:24:17 46° NE 21:27:24 22° ESE
Cosmos 864 Rocket 4.5 21:20:30 10° NNW 21:26:39 76° W 21:29:26 35° S
Cosmos 405 Rocket 3.3 21:27:39 40° E 21:27:44 40° E 21:31:17 10° NNE
Helios 1A 3.6 21:26:46 37° SW 21:27:50 45° W 21:31:54 10° NNW
SL-16 R/B 3.8 21:23:55 10° NW 21:28:19 24° WSW 21:30:37 18° SW
Iridium 51 4.1 21:29:37 61° SE 21:29:57 65° E 21:33:49 10° N
Mayak -1.3 21:26:20 10° NNE 21:30:33 82° WNW 21:31:43 47° SSW
Cosmos 1544 3.8 21:29:38 36° WSW 21:30:38 47° WNW 21:34:10 10° N
Aureole 1 Rocket 4.5 21:22:57 10° NNW 21:30:59 65° WSW 21:34:11 33° S
Nimbus 7 Rocket 4.4 21:25:01 10° NNE 21:31:07 77° ESE 21:33:56 34° S
JB-3 4.1 21:27:19 10° NNE 21:31:13 72° ESE 21:31:42 62° SSE
Cosmos 407 Rocket 3.7 21:26:27 10° NNW 21:31:42 65° NE 21:34:04 32° SE
Cosmos 2181 Rocket 3.9 21:31:54 32° SSW 21:34:56 87° WNW 21:41:11 10° NNE
Cosmos 1626 3.2 21:34:49 10° N 21:38:16 35° ENE 21:39:00 31° E
COSMOS 2487 2.2 21:38:36 84° S 21:38:42 88° ESE 21:42:13 10° NNE
Genesis I 3.1 21:37:22 10° WNW 21:41:23 69° SW 21:41:41 66° S
Meteor 1-24 Rocket 3.5 21:36:20 10° NNW 21:41:42 87° WSW 21:43:39 42° S
Cosmos 2360 Rocket 3.1 21:36:57 10° NW 21:42:02 36° WSW 21:43:44 29° SW
Cosmos 1544 Rocket 3.6 21:42:45 51° SSE 21:43:37 65° E 21:48:04 10° NNE
Cosmos 1125 Rocket 4.4 21:39:18 10° WSW 21:44:22 48° NW 21:49:32 10° NNE
Okean 1 Rocket 4.0 21:42:33 25° WSW 21:44:38 41° WNW 21:48:48 10° N
NOSS 2-2 (D) 4.3 21:40:34 10° WNW 21:45:47 68° SW 21:49:02 32° SE
Cosmos 2219 Rocket 2.1 21:41:03 10° NW 21:46:40 72° WSW 21:48:37 41° SSE
CZ-4C R/B 2.2 21:43:11 23° SW 21:46:48 76° SE 21:53:24 10° ENE
Cosmos 1455 Rocket 2.9 21:46:59 55° S 21:47:54 81° E 21:52:19 10° NNE
Cosmos 614 Rocket 4.0 21:45:55 10° NNW 21:51:11 79° ENE 21:53:16 38° SE
NOSS 2-1 (C) 3.1 21:53:57 68° SSE 21:54:05 69° SE 21:58:24 10° ENE
Cosmos 676 Rocket 4.4 21:49:00 10° NNW 21:54:19 59° NE 21:57:08 27° ESE
COSMOS 2428 2.8 21:49:33 10° NW 21:55:12 63° WSW 21:57:03 41° S
Meteor 1-29 3.4 21:52:37 10° NNE 21:55:38 47° E 21:55:38 47° E
NOSS 2-1 (D) 3.1 21:56:55 69° S 21:57:08 72° SE 22:01:30 10° ENE
NOSS 0 Rocket 3.8 21:52:16 10° NW 21:58:28 84° SW 22:01:21 34° SSE
Cosmos 1470 4.2 21:59:19 25° E 21:59:40 25° E 22:02:54 10° NNE
H-2A R/B 4.4 21:56:52 10° E 21:59:42 18° NE 22:02:29 10° N
ATLAS 2AS CENTAUR R/B 2.9 21:52:25 10° WNW 22:00:22 76° SW 22:05:01 25° SE
Cosmos 2297 Rocket 4.3 21:58:56 11° ESE 22:00:29 12° E 22:02:44 10° ENE
COSMOS 2455 3.1 21:56:14 10° NW 22:02:05 52° SW 22:03:53 39° S
Cosmos 1626 Rocket 3.7 21:57:41 10° NNW 22:02:06 65° W 22:02:58 51° SSW
Cosmos 1758 Rocket 3.9 21:59:05 10° N 22:03:27 57° ENE 22:04:36 42° SE
Timation 2 Rocket 4.4 22:01:47 36° SSE 22:04:02 49° ESE 22:10:15 10° NE
Meteor 2-5 Rocket 4.2 21:59:20 10° NNW 22:04:42 49° W 22:06:42 34° SSW
Cosmos 1733 3.6 22:05:51 47° ESE 22:06:01 47° E 22:09:41 10° NNE
Cosmos 1825 Rocket 3.9 22:02:00 10° N 22:06:25 58° ENE 22:07:38 42° SE
SJ 16-02 4.4 22:03:56 10° WNW 22:06:30 15° NNW 22:09:04 10° N
BREEZE M DEB (TANK) 4.3 22:03:57 15° WSW 22:07:35 40° S 22:21:35 10° ESE
ERS-2 1.9 22:07:53 75° SSE 22:08:10 87° ENE 22:11:51 10° NNW
SL-14 R/B 3.3 22:04:07 10° NNW 22:08:12 80° ENE 22:08:50 62° SSE
Spot 1 4.1 22:07:40 52° SW 22:08:15 58° WSW 22:12:19 10° NNW
Meteor 2-12 Rocket 4.4 22:05:32 10° NNW 22:11:37 87° WSW 22:14:05 39° S
Cosmos 1602 Rocket 3.7 22:07:17 10° NNW 22:11:45 64° W 22:12:38 51° SSW
Cosmos 1674 3.3 22:08:09 10° NNW 22:11:48 42° W 22:12:04 41° WSW
CZ-2D R/B 4.5 22:13:34 10° NE 22:15:36 12° ENE 22:17:38 10° E
Cosmos 1190 Rocket 4.0 22:11:28 10° NNW 22:16:49 77° WSW 22:18:34 44° SSE
Cosmos 2237 Rocket 2.1 22:11:10 10° NW 22:16:53 89° WSW 22:19:28 35° SE
CSL-04 DEB 4.4 22:17:58 56° SE 22:18:42 75° ENE 22:22:38 10° NNW
Cosmos 1980 3.6 22:13:58 10° NW 22:19:41 83° SW 22:22:03 37° SSE
Celestis-02/Orion 38 4.5 22:18:24 44° S 22:19:55 68° WSW 22:25:01 10° NW
CZ-4C R/B 3.5 22:19:52 50° ESE 22:20:32 60° ENE 22:24:08 10° N
Cosmos 1023 Rocket 4.4 22:18:01 10° NNW 22:23:19 85° WSW 22:25:09 42° SSE
Nadezhda 3 Rocket 3.9 22:21:03 38° S 22:23:33 78° E 22:29:44 10° NNE
SL-16 R/B 3.6 22:18:53 12° ESE 22:24:13 42° NE 22:29:59 10° NNW
SL-16 R/B 2.6 22:22:51 10° NW 22:28:31 61° NE 22:33:13 15° ESE
Lacrosse 4 Rocket 3.4 22:28:25 10° WNW 22:30:25 16° W 22:30:25 16° W
Helios 1B rocket 2.7 22:27:11 10° NNE 22:31:16 62° WNW 22:32:15 46° WSW
Cosmos 1726 4.5 22:30:19 13° E 22:31:19 14° E 22:33:25 10° NE
Cosmos 1184 Rocket 3.8 22:37:08 36° E 22:37:08 36° E 22:39:58 10° NNE
CZ-4 R/B 3.9 22:32:09 10° NNE 22:37:11 86° ESE 22:38:47 45° SSW
Cosmos 1758 3.5 22:36:48 52° SE 22:37:24 59° E 22:41:29 10° NNE
Cosmos 1703 4.5 22:35:50 10° N 22:39:30 37° ENE 22:40:57 27° ESE
NOSS 2-1 (E) 3.4 22:38:32 39° WSW 22:39:53 77° NNW 22:44:33 10° ENE
Cosmos 1805 3.7 22:42:18 44° WSW 22:43:01 51° WNW 22:46:53 10° N
Cosmos 1833 4.2 22:43:47 31° SW 22:46:37 80° NW 22:52:22 10° NE
Cosmos 1766 4.0 22:46:57 39° WSW 22:47:50 46° WNW 22:51:43 10° N
Cosmos 2333 Rocket 3.0 22:42:53 10° NW 22:47:51 32° WSW 22:48:53 30° SW
ALOS 2 4.3 22:50:00 19° WSW 22:50:47 20° W 22:54:02 10° NW
Cosmos 1605 Rocket 4.0 22:46:26 10° NNW 22:52:49 88° WSW 22:55:54 34° S
Cosmos 2219 4.0 22:51:42 31° SSE 22:53:31 39° ESE 22:58:50 10° NE
USA 267 3.2 22:52:20 10° ESE 22:58:48 62° SSW 23:05:19 10° WNW
Cosmos 1437 Rocket 4.4 22:56:11 10° NW 22:59:20 22° W 22:59:37 22° W
SL-19 R/B 4.1 22:55:01 10° NNE 23:00:16 80° ESE 23:02:13 40° S
Cosmos 2058 Rocket 4.0 22:58:52 31° SE 23:00:19 40° E 23:04:33 10° NNE
Cosmos 1934 Rocket 4.1 22:56:35 10° NNW 23:02:32 58° W 23:04:54 36° SSW
Resurs 1-4 Rocket 3.8 22:59:11 10° NE 23:03:25 24° E 23:06:26 15° SE
Meteor 1-11 4.5 22:57:55 10° NNW 23:03:33 64° ENE 23:06:52 25° SE
Cosmos 405 Rocket 4.1 23:02:48 25° W 23:03:51 29° WNW 23:07:10 10° N
Mayak 1.1 23:02:46 10° N 23:05:34 18° NW 23:08:17 10° W
Cosmos 1140 Rocket 3.8 23:01:08 10° NW 23:06:10 47° WSW 23:07:22 40° SSW
NOSS 3-4 (A) 3.9 22:59:37 10° WNW 23:06:13 55° SW 23:10:26 25° SSE
NOSS 3-4 (C) 3.9 22:59:43 10° WNW 23:06:19 55° SW 23:10:35 25° SSE
Cosmos 2082 Rocket 4.3 23:03:28 10° WNW 23:08:13 26° NNW 23:12:59 10° NE
PSLV R/B 3.6 23:05:25 10° NNE 23:09:52 77° ESE 23:11:09 46° S
Cosmos 1371 Rocket 4.1 23:08:38 41° S 23:10:26 67° ESE 23:15:43 10° NE
Cosmos 1953 Rocket 3.7 23:06:27 10° NNW 23:10:51 60° W 23:11:49 47° SSW
Cosmos 407 Rocket 4.4 23:08:51 10° NW 23:13:25 31° WSW 23:14:13 30° WSW
Cosmos 1626 3.2 23:10:13 10° NNW 23:13:32 31° W 23:13:34 31° W
Cosmos 1953 2.2 23:15:00 57° S 23:15:45 84° ESE 23:19:46 10° NNE
UNK 4.1 23:15:16 26° SE 23:17:49 64° ENE 23:22:28 10° NNW
ERBS 3.3 23:21:22 34° ESE 23:21:22 34° ESE 23:23:38 10° E
NOSS 3-3 (A) 4.2 23:17:50 34° SSW 23:20:34 62° SE 23:27:27 10° ENE
NOSS 3-3 (C) 4.2 23:17:57 34° SSW 23:20:40 61° SE 23:27:33 10° ENE
MOZ.5/SAFIR/RUBIN 5/SL-8 4.0 23:19:44 27° SE 23:22:19 69° ENE 23:27:05 10° NNW
Cosmos 1954 Rocket 4.4 23:17:29 10° NW 23:22:33 46° WSW 23:23:53 38° SSW
CZ-4B R/B 3.6 23:19:31 10° NNE 23:24:14 59° ESE 23:26:03 35° SSE
CZ-4B R/B 4.3 23:23:46 10° E 23:25:56 16° NE 23:28:08 10° NNE
Cosmos 1452 Rocket 4.5 23:25:16 26° SSE 23:27:27 37° ESE 23:32:17 10° NE
Cosmos 2227 Rocket 3.0 23:25:45 28° SSE 23:28:03 41° ESE 23:33:20 10° NE
Cosmos 1726 Rocket 3.5 23:27:42 46° SSW 23:29:00 90° SW 23:33:30 10° NNE
Cosmos 2219 Rocket 3.7 23:25:59 10° WNW 23:29:44 19° W 23:30:19 18° WSW
RESURS DK-1 3.6 23:25:48 10° NW 23:29:48 44° NE 23:33:48 10° ESE
Alouette 2 Rocket 4.0 23:31:18 39° S 23:32:58 76° ESE 23:39:12 10° NNE
Cosmos 1271 Rocket 2.6 23:29:40 10° NNW 23:33:29 71° WSW 23:34:09 56° SSW
H-2A R/B 2.0 23:33:23 34° SSE 23:35:09 81° ENE 23:39:19 10° NNW
Cosmos 1470 3.3 23:34:41 39° WSW 23:35:33 46° WNW 23:39:20 10° N
CZ-4C R/B 3.0 23:29:52 10° W 23:35:40 61° NNW 23:42:39 10° ENE
ADEOS II 4.3 23:33:49 10° NE 23:37:19 18° E 23:40:48 10° SE
COSMOS 2428 4.4 23:35:03 10° WNW 23:38:26 16° W 23:39:02 16° WSW
ERS-2 4.3 23:42:31 14° W 23:42:31 14° W 23:44:21 10° NW
Cosmos 2228 3.0 23:41:17 43° SW 23:42:35 69° WNW 23:46:56 10° N
Cosmos 2297 Rocket 2.6 23:40:45 30° S 23:43:17 51° ESE 23:48:46 10° NE
NOSS 2-1 (C) 4.4 23:41:15 11° W 23:44:49 50° N 23:49:40 10° ENE
NOSS 2-1 (D) 4.4 23:44:14 11° W 23:47:55 49° N 23:52:46 10° ENE
ATLAS 2AS CENTAUR R/B 3.7 23:43:55 10° WNW 23:50:24 30° WSW 23:52:23 26° SW
Meteor 1-16 Rocket 4.3 23:47:23 30° S 23:50:25 85° ESE 23:56:24 10° NNE
Timation 2 Rocket 4.4 23:46:46 20° WSW 23:51:31 62° NW 23:57:55 10° NE
Cosmos 2173 Rocket 4.0 23:46:03 10° NNW 23:52:20 84° W 23:56:32 23° S
